Printer-friendly version

IAU Minor Planet Center

Minor Planet Center

MPEC 2006-F42 : 2006 FL10

The following Minor Planet Electronic Circular may be linked-to from your own Web pages, but must not otherwise be redistributed electronically.


Read MPEC 2006-F41 Read MPEC 2006-F43


M.P.E.C. 2006-F42                                Issued 2006 Mar. 28, 16:31 UT

     The Minor Planet Electronic Circulars contain information on unusual
         minor planets and routine data on comets.  They are published
   on behalf of Commission 20 of the International Astronomical Union by the
          Minor Planet Center, Smithsonian Astrophysical Observatory,
                          Cambridge, MA 02138, U.S.A.

                  Supported in part by the Brinson Foundation
                  Supported in part by the TABASGO Foundation
             Prepared using the Tamkin Foundation Computer Network

                              MPC@CFA.HARVARD.EDU
          URL http://cfa-www.harvard.edu/iau/mpc.html  ISSN 1523-6714

                                   2006 FL10

Observations:
     K06F10L* C2006 03 24.35120 13 39 29.26 -09 32 58.8          21.0 V EF042G96
     K06F10L  C2006 03 24.35741 13 39 28.22 -09 33 07.0          21.6 V EF042G96
     K06F10L  C2006 03 24.36368 13 39 27.10 -09 33 15.6          21.4 V EF042G96
     K06F10L  C2006 03 24.37016 13 39 25.95 -09 33 24.8          21.3 V EF042G96
     K06F10L  C2006 03 24.39932 13 39 20.84 -09 34 05.5          21.3 V EF042G96
     K06F10L  C2006 03 24.40264 13 39 20.23 -09 34 10.0          21.6 V EF042G96
     K06F10L  C2006 03 24.40594 13 39 19.65 -09 34 15.2          20.8 V EF042G96
     K06F10L  C2006 03 24.40924 13 39 19.08 -09 34 19.4          21.3 V EF042G96
     K06F10L  C2006 03 26.40953 13 33 38.12 -10 20 13.0          21.1 V EF042G96
     K06F10L  C2006 03 26.41810 13 33 36.64 -10 20 24.3          20.9 V EF042G96
     K06F10L  C2006 03 26.42645 13 33 35.13 -10 20 35.4          20.9 V EF042G96
     K06F10L  C2006 03 26.43524 13 33 33.58 -10 20 47.2          21.1 V EF042G96

Observer details:
G96 Mt. Lemmon Survey.  Observers E. J. Christensen, R. A. Kowalski.
    Measurers E. C. Beshore, E. J. Christensen, G. J. Garradd, A. R. Gibbs,
    A. D. Grauer, R. E. Hill, R. A. Kowalski, S. M. Larson, R. H. McNaught.
    1.5-m reflector + CCD.

Orbital elements:
2006 FL10                                                Earth MOID = 0.3050 AU
Epoch 2006 Mar. 6.0 TT = JDT 2453800.5                  MPC
M  41.79464              (2000.0)            P               Q
n   0.46947471     Peri.   90.41603     -0.19244395     -0.97893333
a   1.6395623      Node    11.39023     +0.70528200     -0.18631970
e   0.3445167      Incl.   20.21039     +0.68230684     -0.08351354
P   2.10           H   21.2           G   0.15           U   9
Residuals in seconds of arc
060324 G96  0.3-  0.6-    060324 G96  0.2+  0.2+    060326 G96  0.4-  0.2-
060324 G96  0.4+  0.1-    060324 G96  0.2-  0.4+    060326 G96  0.3+  0.0
060324 G96  0.1+  0.1+    060324 G96  0.2-  0.2-    060326 G96  0.1-  0.1+
060324 G96  0.0   0.0     060324 G96  0.0   0.2+    060326 G96  0.1+  0.1+

Ephemeris:
2006 FL10                a,e,i = 1.64, 0.34, 20                  q = 1.0747
Date    TT    R. A. (2000) Decl.     Delta      r     Elong.  Phase     V
2006 03 26    13 34.81   -10 10.7    0.466    1.444   159.4    14.1    21.1
2006 03 31    13 20.43   -11 57.9    0.478    1.468   166.6     9.1    21.0
2006 04 05    13 06.28   -13 31.4    0.496    1.493   171.9     5.4    21.0
2006 04 10    12 53.00   -14 50.3    0.519    1.517   171.3     5.7    21.1
2006 04 15    12 41.08   -15 55.3    0.549    1.542   166.1     9.0    21.4
2006 04 20    12 30.84   -16 47.8    0.584    1.566   160.0    12.7    21.8
2006 04 25    12 22.43   -17 30.2    0.623    1.590   153.9    16.2    22.1

Kyle E. Smalley              (C) Copyright 2006 MPC           M.P.E.C. 2006-F42

Read MPEC 2006-F41 Read MPEC 2006-F43


Our Web policy. Index to the CBAT/MPC/ICQ pages.


Valid HTML 4.01!